Погода в Иванове

Россия / Псковская область     56°03′12″N   29°59′36″E
темп.,
°C
ветер,
м/с
пор.,
м/с
влажн.,
%
обл.,
%
осадки,
мм/ч
давл.,
гПа
погр.,
м
20 мая, пт
пт2000:00+8всв1187100 0.0 101828
03:00+8всв2596100 0.0 1019156
06:00+8вюв2692100 0.0 1018228
09:00+11вюв3570100 0.0 1018478
12:00+12вюв3567100 0.1 1017835
15:00+12вюв4671100 0.1 1015674
18:00+9в4997100 4.3 1014356
21:00+8в41198100 9.6 1013459
21 мая, сб
сб2100:00+8вюв41298100 2.2 1011605
03:00+8вюв51298100 9.1 1010638
06:00+7вюв41197100 1.0 1009607
09:00+8в41097100 1.1 1009545
12:00+8вюв41091100 0.1 1008643
15:00+10вюв5107895 0.1 1006755
18:00+9вюв41082100 0.0 1005808
21:00+8в41292100 0.5 1004775
22 мая, вс
вс2200:00+8в51185100 0.3 10031152
03:00+8всв41082100 0.5 1003876
06:00+6св4127831 0.0 1004489
09:00+11св58513 0.0 1006885
12:00+13св573939 0.0 10072131
15:00+15ссв563484 0.0 10082500
18:00+14ссв454011 0.0 10082377
21:00+8с38666 0.0 1010161
23 мая, пн
пн2300:00+4с25625 0.0 101186
03:00+2с256828 0.0 101291
06:00+3с27737 0.0 1013175
09:00+9ссв354525 0.0 1013733
12:00+13ссв47375 0.0 10131825
15:00+15с584294 0.0 10122241
18:00+14с494967 0.0 10122053
21:00+10сз26715 0.0 1013184
24 мая, вт
вт2400:00+6ссз25885 0.0 101482
03:00+5ссз22925 0.0 101514
06:00+6зсз23845 0.0 101681
09:00+14сз24560 0.0 1015567
12:00+18ссз23405 0.0 10152021
15:00+18зсз2339100 0.0 10152084
18:00+18св124885 0.0 1015652
21:00+14ююз2265100 0.0 101631